TimeEST,TemperatureF,Dew PointF,Humidity,Sea Level PressureIn,VisibilityMPH,Wind Direction,Wind SpeedMPH,Gust SpeedMPH,PrecipitationIn,Events,Conditions,WindDirDegrees,DateUTC
12:12 AM,51.1,50.0,96,30.11,7.0,Calm,Calm,-,0.00,Rain,Light Rain,0,2013-12-05 05:12:00
12:20 AM,51.1,50.0,96,30.11,8.0,Calm,Calm,-,0.00,Rain,Light Rain,0,2013-12-05 05:20:00
12:50 AM,51.8,50.0,94,30.10,6.0,Calm,Calm,-,0.00,,Overcast,0,2013-12-05 05:50:00
12:54 AM,51.1,50.0,96,30.10,6.0,ESE,3.5,-,0.00,,Overcast,120,2013-12-05 05:54:00
1:09 AM,51.1,51.1,100,30.09,1.8,Calm,Calm,-,N/A,,Overcast,0,2013-12-05 06:09:00
1:22 AM,51.1,51.1,100,30.10,0.5,Calm,Calm,-,N/A,Fog,Fog,0,2013-12-05 06:22:00
1:54 AM,52.0,52.0,100,30.10,0.8,Calm,Calm,-,N/A,,Mist,0,2013-12-05 06:54:00
2:33 AM,52.0,52.0,100,30.10,1.0,Calm,Calm,-,N/A,,Mist,0,2013-12-05 07:33:00
2:46 AM,52.0,52.0,100,30.09,0.8,Calm,Calm,-,N/A,,Mist,0,2013-12-05 07:46:00
2:54 AM,52.0,52.0,100,30.09,0.8,Calm,Calm,-,N/A,,Mist,0,2013-12-05 07:54:00
3:18 AM,52.0,52.0,100,30.09,0.2,ESE,3.5,-,N/A,Fog,Fog,120,2013-12-05 08:18:00
3:54 AM,51.1,51.1,100,30.07,0.2,Calm,Calm,-,N/A,Fog,Fog,0,2013-12-05 08:54:00
4:54 AM,50.0,50.0,100,30.08,0.2,Calm,Calm,-,N/A,Fog,Fog,0,2013-12-05 09:54:00
5:26 AM,48.9,48.9,100,30.07,0.2,ESE,4.6,-,N/A,Fog,Fog,110,2013-12-05 10:26:00
5:35 AM,48.0,48.0,100,30.08,0.2,Calm,Calm,-,N/A,Fog,Fog,0,2013-12-05 10:35:00
5:54 AM,48.9,48.9,100,30.07,0.2,Calm,Calm,-,N/A,Fog,Fog,0,2013-12-05 10:54:00
6:54 AM,48.9,48.9,100,30.07,0.2,Calm,Calm,-,N/A,Fog,Fog,0,2013-12-05 11:54:00
7:54 AM,51.1,51.1,100,30.08,0.2,SSE,4.6,-,N/A,Fog,Fog,150,2013-12-05 12:54:00
8:06 AM,51.1,51.1,100,30.08,0.5,SE,5.8,-,N/A,Fog,Fog,140,2013-12-05 13:06:00
8:16 AM,52.0,52.0,100,30.08,1.8,SE,5.8,-,N/A,,Overcast,140,2013-12-05 13:16:00
8:24 AM,52.0,52.0,100,30.07,2.0,SSE,5.8,-,N/A,,Overcast,150,2013-12-05 13:24:00
8:54 AM,53.1,53.1,100,30.09,3.0,Variable,3.5,-,N/A,,Overcast,0,2013-12-05 13:54:00
9:54 AM,54.0,54.0,100,30.10,10.0,Variable,4.6,-,N/A,,Overcast,0,2013-12-05 14:54:00
10:00 AM,54.0,54.0,100,30.10,10.0,Variable,6.9,-,N/A,,Overcast,0,2013-12-05 15:00:00
10:54 AM,54.0,53.1,97,30.08,10.0,Variable,4.6,-,N/A,,Overcast,0,2013-12-05 15:54:00
11:27 AM,55.0,54.0,96,30.07,10.0,SSW,6.9,-,N/A,,Overcast,200,2013-12-05 16:27:00
11:54 AM,55.9,54.0,93,30.05,8.0,Variable,4.6,-,N/A,,Overcast,0,2013-12-05 16:54:00
12:54 PM,55.9,55.0,97,30.02,5.0,Variable,5.8,-,N/A,,Overcast,0,2013-12-05 17:54:00
1:54 PM,57.0,55.0,93,30.01,7.0,Variable,5.8,-,N/A,,Overcast,0,2013-12-05 18:54:00
2:16 PM,57.0,55.0,93,30.00,7.0,SSE,4.6,-,N/A,,Overcast,160,2013-12-05 19:16:00
2:54 PM,57.0,55.0,93,29.99,7.0,South,4.6,-,N/A,,Overcast,180,2013-12-05 19:54:00
3:54 PM,57.0,54.0,89,30.00,9.0,Variable,3.5,-,N/A,,Overcast,0,2013-12-05 20:54:00
4:54 PM,57.0,55.0,93,30.01,7.0,Variable,3.5,-,N/A,,Overcast,0,2013-12-05 21:54:00
5:09 PM,57.0,55.0,93,30.01,8.0,Variable,3.5,-,N/A,,Overcast,0,2013-12-05 22:09:00
5:54 PM,55.9,54.0,93,29.99,4.0,SSE,5.8,-,N/A,,Overcast,150,2013-12-05 22:54:00
6:33 PM,55.0,54.0,96,30.00,4.0,South,3.5,-,N/A,,Overcast,180,2013-12-05 23:33:00
6:54 PM,55.0,54.0,96,30.00,4.0,South,3.5,-,N/A,,Overcast,180,2013-12-05 23:54:00
7:54 PM,55.0,55.0,100,30.01,3.0,Calm,Calm,-,N/A,,Overcast,0,2013-12-06 00:54:00
8:40 PM,55.0,55.0,100,30.01,4.0,Calm,Calm,-,N/A,,Overcast,0,2013-12-06 01:40:00
8:54 PM,55.0,55.0,100,30.00,4.0,SE,3.5,-,N/A,,Overcast,140,2013-12-06 01:54:00
9:45 PM,54.0,53.1,97,29.99,5.0,SSE,3.5,-,N/A,,Overcast,160,2013-12-06 02:45:00
9:50 PM,51.8,51.8,100,29.98,0.8,South,13.8,-,N/A,,Overcast,180,2013-12-06 02:50:00
9:54 PM,54.0,53.1,97,29.99,5.0,SSE,3.5,-,N/A,,Overcast,150,2013-12-06 02:54:00
10:07 PM,53.1,53.1,100,29.98,5.0,SSE,3.5,-,N/A,,Overcast,150,2013-12-06 03:07:00
10:54 PM,55.0,54.0,96,29.97,4.0,Calm,Calm,-,N/A,,Overcast,0,2013-12-06 03:54:00
11:31 PM,55.9,55.0,97,29.98,5.0,Calm,Calm,-,N/A,,Overcast,0,2013-12-06 04:31:00
11:50 PM,55.4,55.4,100,29.97,4.0,Calm,Calm,-,N/A,,Overcast,0,2013-12-06 04:50:00
11:54 PM,55.9,55.0,97,29.97,4.0,Variable,3.5,-,N/A,,Overcast,0,2013-12-06 04:54:00